Location: ????????
(54.8751°N, 38.5756°E)
Time: 15:34:40
(UTC+00:00)

Cosmos 2221 - Pass Details

Date: 14 April 2024
Orbit: 583 x 603 km, 82.5° (Epoch: 18 May)

Event Time Altitude Azimuth Distance (km) Brightness Sun altitude
Exits shadow 00:02:33 35° 250° (WSW) 971 3.1 -17.8°
Maximum altitude 00:03:40 42° 289° (WNW) 848 3.0 -17.6°
Drops below altitude 10° 00:07:45 10° 1° (N) 1,937 5.8 -17.3°
Sets 00:10:04 0° 8° (N) 2,847 6.9 -17.0°
